Date String (YYYY-MM-DD hh:mm:ss) UTC,Instrument flags,Ambient pressure (hPa),Sample flow (lpm),Bypass flow (lpm),Sample temperature (°C),Ambient temperature (°C),ASC tube jacket temperature (°C),LED temperature (°C),Box temperature (°C),Sample RH (%),Span deviation,Mass concentration (μg/m³),Mass concentration (μg/m³),Mass concentration (μg/m³)
DateTimeUTC,F1_M11,P_M11,Q1_M11,Q2_M11,T1_M11,T2_M11,T3_M11,T4_M11,T5_M11,U1_M11,ZSPAN_M11,X0_M11,X2_M11,X1_M11
2021-11-27 20:00:00,,0830.6,5.00,0.00,25.4,24.8,00.0,34.4,27.2,11.1,0000.0,0004.67,0001.99,0001.21
2021-11-27 20:01:00,,0830.6,4.99,0.00,25.4,24.8,00.0,34.4,27.3,11.0,0000.0,0005.64,0001.97,0001.22
2021-11-27 20:02:00,,0830.6,5.01,0.00,25.4,24.8,00.0,34.4,27.3,11.0,0000.0,0005.66,0001.95,0001.22
2021-11-27 20:03:00,,0830.6,5.00,0.00,25.4,24.8,00.0,34.4,27.3,11.1,0000.0,0005.72,0001.92,0001.23
2021-11-27 20:04:00,,0830.6,5.01,0.00,25.4,24.9,00.0,34.4,27.3,11.0,0000.0,0005.38,0001.90,0001.24
2021-11-27 20:05:00,,0830.6,4.99,0.00,25.4,24.9,00.0,34.4,27.2,11.0,0000.0,0005.64,0001.92,0001.23
2021-11-27 20:06:00,,0830.6,5.01,0.00,25.4,24.9,00.0,34.4,27.2,11.0,0000.0,0005.78,0001.90,0001.22
2021-11-27 20:07:00,,0830.6,4.99,0.00,25.4,24.9,00.0,34.4,27.2,11.0,0000.0,0005.55,0001.83,0001.21
2021-11-27 20:08:00,,0830.6,5.01,0.00,25.4,24.9,00.0,34.4,27.2,11.1,0000.0,0005.61,0001.75,0001.18
2021-11-27 20:09:00,,0830.6,4.99,0.00,25.4,24.9,00.0,34.4,27.2,11.1,0000.0,0005.33,0001.73,0001.18
2021-11-27 20:10:00,,0830.6,5.00,0.00,25.4,24.9,00.0,34.4,27.2,11.1,0000.0,0005.75,0001.71,0001.19
2021-11-27 20:11:00,,0830.6,5.01,0.00,25.4,24.9,00.0,34.4,27.3,11.1,0000.0,0005.95,0001.75,0001.19
2021-11-27 20:12:00,,0830.6,4.99,0.00,25.5,24.9,00.0,34.4,27.3,11.1,0000.0,0005.15,0001.78,0001.19
2021-11-27 20:13:00,,0830.8,4.99,0.00,25.5,24.9,00.0,34.4,27.3,11.1,0000.0,0004.91,0001.81,0001.20
2021-11-27 20:14:00,,0830.7,5.02,0.00,25.5,24.9,00.0,34.4,27.3,11.1,0000.0,0004.83,0001.86,0001.21
2021-11-27 20:15:00,,0830.7,4.99,0.00,25.5,24.9,00.0,34.4,27.3,11.1,0000.0,0004.90,0001.90,0001.20
2021-11-27 20:16:00,,0830.7,5.00,0.00,25.5,24.9,00.0,34.4,27.3,11.1,0000.0,0004.65,0001.88,0001.20
2021-11-27 20:17:00,,0830.7,5.01,0.00,25.5,25.0,00.0,34.5,27.3,11.1,0000.0,0004.96,0001.88,0001.20
2021-11-27 20:18:00,,0830.8,5.00,0.00,25.5,25.0,00.0,34.5,27.3,11.1,0000.0,0005.60,0001.92,0001.20
2021-11-27 20:19:00,,0830.8,5.00,0.00,25.5,25.0,00.0,34.5,27.4,11.1,0000.0,0005.52,0002.00,0001.21
2021-11-27 20:20:00,,0830.8,4.99,0.00,25.5,25.0,00.0,34.5,27.4,11.1,0000.0,0005.61,0002.02,0001.21
2021-11-27 20:21:00,,0830.8,5.01,0.00,25.5,25.0,00.0,34.5,27.4,10.7,0000.0,0005.54,0002.02,0001.22
2021-11-27 20:22:00,,0830.6,5.01,0.00,25.5,25.0,00.0,34.5,27.3,10.6,0000.0,0005.64,0002.00,0001.24
2021-11-27 20:23:00,,0830.6,5.00,0.00,25.5,25.0,00.0,34.5,27.4,10.7,0000.0,0005.76,0002.00,0001.27
2021-11-27 20:24:00,,0830.6,5.00,0.00,25.6,25.0,00.0,34.5,27.4,10.7,0000.0,0005.84,0001.98,0001.29
2021-11-27 20:25:00,,0830.6,4.99,0.00,25.6,25.0,00.0,34.5,27.4,10.7,0000.0,0005.84,0001.97,0001.31
2021-11-27 20:26:00,,0830.6,4.99,0.00,25.6,25.0,00.0,34.5,27.4,10.7,0000.0,0005.88,0001.99,0001.34
2021-11-27 20:27:00,,0830.6,5.01,0.00,25.6,25.0,00.0,34.5,27.4,10.7,0000.0,0005.84,0002.00,0001.36
2021-11-27 20:28:00,,0830.6,4.99,0.00,25.6,25.0,00.0,34.5,27.3,10.9,0000.0,0005.52,0001.98,0001.37
2021-11-27 20:29:00,,0830.6,5.02,0.00,25.6,25.0,00.0,34.5,27.3,11.1,0000.0,0004.99,0001.99,0001.39
2021-11-27 20:30:00,,0830.6,4.99,0.00,25.6,25.0,00.0,34.5,27.3,11.2,0000.0,0005.34,0001.96,0001.39
2021-11-27 20:31:00,,0830.6,5.00,0.00,25.6,25.0,00.0,34.5,27.4,11.2,0000.0,0006.13,0001.99,0001.40
2021-11-27 20:32:00,,0830.6,4.99,0.00,25.6,25.0,00.0,34.6,27.4,11.2,0000.0,0005.68,0001.97,0001.39
2021-11-27 20:33:00,,0830.6,5.01,0.00,25.6,25.0,00.0,34.6,27.4,11.2,0000.0,0006.10,0001.98,0001.38
2021-11-27 20:34:00,,0830.5,4.99,0.00,25.6,25.0,00.0,34.5,27.4,11.2,0000.0,0005.92,0001.94,0001.36
2021-11-27 20:35:00,,0830.5,5.01,0.00,25.6,25.0,00.0,34.6,27.4,11.2,0000.0,0005.84,0001.97,0001.35
2021-11-27 20:36:00,,0830.5,5.00,0.00,25.6,25.0,00.0,34.6,27.4,11.2,0000.0,0005.97,0001.98,0001.33
2021-11-27 20:37:00,,0830.5,4.99,0.00,25.6,25.0,00.0,34.6,27.5,11.1,0000.0,0005.82,0001.93,0001.31
2021-11-27 20:38:00,,0830.5,5.01,0.00,25.6,25.0,00.0,34.6,27.5,11.1,0000.0,0005.91,0001.93,0001.29
2021-11-27 20:39:00,,0830.6,4.99,0.00,25.6,25.0,00.0,34.6,27.5,11.1,0000.0,0006.49,0001.91,0001.27
2021-11-27 20:40:00,,0830.6,5.00,0.00,25.7,25.0,00.0,34.6,27.5,11.1,0000.0,0006.40,0001.87,0001.26
2021-11-27 20:41:00,,0830.6,5.00,0.00,25.7,25.1,00.0,34.6,27.5,11.0,0000.0,0006.00,0001.86,0001.27
2021-11-27 20:42:00,,0830.6,5.00,0.00,25.6,25.1,00.0,34.6,27.5,11.0,0000.0,0005.62,0001.86,0001.26
2021-11-27 20:43:00,,0830.6,5.01,0.00,25.7,25.1,00.0,34.6,27.5,11.0,0000.0,0006.81,0001.89,0001.26
2021-11-27 20:44:00,,0830.6,4.98,0.00,25.7,25.1,00.0,34.6,27.5,11.1,0000.0,0006.38,0001.87,0001.26
2021-11-27 20:45:00,,0830.6,5.00,0.00,25.7,25.1,00.0,34.6,27.5,11.1,0000.0,0007.34,0001.89,0001.28
2021-11-27 20:46:00,,0830.6,5.01,0.00,25.7,25.1,00.0,34.6,27.5,11.2,0000.0,0007.60,0001.93,0001.32
2021-11-27 20:47:00,,0830.6,4.99,0.00,25.7,25.1,00.0,34.6,27.5,11.1,0000.0,0007.74,0001.93,0001.35
2021-11-27 20:48:00,,0830.5,5.00,0.00,25.7,25.1,00.0,34.6,27.5,11.1,0000.0,0007.97,0001.98,0001.39
2021-11-27 20:49:00,,0830.5,5.01,0.00,25.7,25.1,00.0,34.6,27.5,11.1,0000.0,0007.96,0002.04,0001.46
2021-11-27 20:50:00,,0830.5,5.01,0.00,25.7,25.1,00.0,34.7,27.5,11.0,0000.0,0007.58,0002.11,0001.52
2021-11-27 20:51:00,,0830.6,4.99,0.00,25.7,25.1,00.0,34.7,27.5,11.1,0000.0,0007.63,0002.16,0001.59
2021-11-27 20:52:00,,0830.5,5.00,0.00,25.7,25.1,00.0,34.7,27.5,11.1,0000.0,0007.53,0002.22,0001.63
2021-11-27 20:53:00,,0830.5,5.00,0.00,25.7,25.1,00.0,34.7,27.5,11.1,0000.0,0007.33,0002.25,0001.69
2021-11-27 20:54:00,,0830.5,5.01,0.00,25.7,25.1,00.0,34.7,27.5,11.1,0000.0,0006.32,0002.31,0001.75
2021-11-27 20:55:00,,0830.5,4.99,0.00,25.7,25.1,00.0,34.7,27.5,11.1,0000.0,0006.14,0002.42,0001.80
2021-11-27 20:56:00,,0830.5,5.02,0.00,25.7,25.0,00.0,34.7,27.5,11.1,0000.0,0007.40,0002.57,0001.83
2021-11-27 20:57:00,,0830.4,5.00,0.00,25.7,25.0,00.0,34.7,27.5,11.1,0000.0,0007.46,0002.57,0001.84
2021-11-27 20:58:00,,0830.5,4.99,0.00,25.7,25.0,00.0,34.7,27.5,11.1,0000.0,0007.25,0002.55,0001.83
2021-11-27 20:59:00,,0830.5,5.02,0.00,25.7,25.0,00.0,34.7,27.5,11.1,0000.0,0007.34,0002.55,0001.82
